Wind_Speed
31 30 30 30 29 30 30 31 31 31 30 30 30 29 28 28 26 27 26 26 26 26 26 26 26 26 26 26 27 27 27 28 28 27 27 28 28 29 29 29 29 29 29
33 32 32 31 31 31 30 31 31 31 30 30 31 30 30 30 28 28 28 28 28 28 28 28 28 28 28 28 29 29 29 29 29 29 29 29 29 30 30 30 30 30 30
34 34 33 33 32 32 31 31 31 31 31 31 32 32 31 30 29 29 29 30 30 29 29 29 29 29 29 29 30 30 30 31 31 31 31 31 31 31 31 31 30 31 32
35 34 35 34 34 33 33 33 33 32 32 32 32 32 32 31 30 31 31 30 30 30 30 30 30 30 30 30 31 31 32 31 32 32 32 32 32 31 31 31 32 33 33
36 35 35 36 35 34 33 33 34 33 33 32 32 32 32 33 32 32 32 31 31 31 31 31 31 31 31 32 32 33 33 33 33 33 33 33 32 32 32 32 33 34 35
37 37 37 37 37 35 34 34 35 35 34 34 33 33 33 33 33 33 33 32 33 33 32 32 32 32 32 33 33 33 33 33 33 34 33 33 33 33 33 34 34 35 36
38 38 39 38 38 37 36 35 36 36 35 35 35 35 34 34 33 33 33 33 33 33 33 33 33 33 33 33 34 34 33 33 34 34 34 34 34 34 34 35 35 36 37
39 40 39 38 39 38 37 37 37 36 35 35 35 35 35 35 35 34 33 33 34 34 34 34 35 34 33 33 34 34 34 35 35 35 36 35 35 35 36 36 37 38 38
39 40 39 39 39 39 38 37 36 36 36 36 35 36 35 35 35 35 35 35 34 34 35 35 35 35 35 35 35 35 35 35 36 36 36 37 37 37 37 38 38 39 39
38 39 39 39 39 39 38 37 36 36 35 35 36 36 36 35 35 34 35 35 36 36 36 36 37 36 36 36 36 37 37 37 37 37 37 37 39 39 40 40 40 40 40
39 39 39 40 40 39 37 37 36 36 35 35 36 36 36 36 36 36 35 36 37 37 37 38 37 38 38 38 38 38 38 39 39 39 39 39 39 40 40 41 41 41 41
40 39 39 40 39 39 38 37 36 36 36 36 36 36 37 37 37 38 37 37 38 38 38 39 39 39 40 40 40 39 39 40 40 40 41 41 41 41 42 42 42 42 42
39 39 39 39 40 39 38 38 37 37 37 37 37 38 38 38 39 39 39 39 39 39 39 40 40 41 41 41 41 41 41 41 42 42 42 43 43 43 44 44 42 42 42
40 40 39 39 39 39 39 39 38 39 38 38 38 39 39 39 39 39 39 39 39 40 40 41 41 41 41 42 42 42 42 42 42 43 43 43 44 45 44 44 43 42 42
40 40 39 39 39 39 39 39 40 39 39 39 40 40 40 40 39 39 38 38 39 40 40 41 41 41 41 41 42 42 42 42 42 42 42 43 43 44 44 44 43 43 43
39 39 39 38 39 39 39 40 41 40 39 39 40 40 40 41 40 40 39 39 39 41 41 41 40 40 41 41 42 41 41 41 41 42 42 42 42 41 42 42 42 43 42
39 39 40 39 39 39 38 39 39 39 39 39 40 40 40 41 41 41 40 39 40 40 41 40 40 40 40 40 40 41 41 41 41 41 41 41 40 40 40 40 40 41 41
39 39 40 40 39 39 38 38 38 39 38 38 39 39 40 40 40 40 40 40 41 40 40 40 39 39 39 39 40 40 40 40 40 40 39 39 39 39 40 40 40 39 39
39 39 39 39 39 39 40 39 39 39 38 39 39 39 40 40 40 41 41 42 41 41 40 39 38 38 38 39 38 39 39 39 39 39 39 39 39 39 39 39 39 39 39
38 38 39 39 40 40 40 40 40 40 40 40 39 39 40 40 40 41 41 41 41 40 39 39 38 38 38 39 39 38 38 38 39 39 39 39 39 39 39 39 39 39 39
37 38 39 39 40 40 40 41 41 41 41 40 40 41 41 41 41 41 40 40 40 40 39 39 38 38 38 38 38 38 38 38 38 38 38 39 39 39 39 39 39 39 39
37 38 39 40 40 40 40 41 41 41 41 41 41 41 41 41 41 40 40 40 40 39 39 39 38 38 38 38 38 38 38 37 38 38 39 39 39 39 39 39 39 38 38
38 38 38 38 38 39 39 40 41 41 41 41 40 40 40 40 40 39 38 38 38 38 39 39 38 38 39 38 38 38 38 38 38 38 38 38 39 39 38 38 38 38 37
38 38 37 37 38 38 38 39 39 41 41 41 41 41 41 41 41 41 40 38 38 38 38 38 38 39 38 38 38 38 38 37 38 38 38 37 37 37 38 37 37 37 36
37 37 37 37 38 38 38 38 39 39 39 39 39 40 41 41 41 41 41 40 40 40 39 38 38 38 39 39 38 39 39 39 39 38 38 37 36 36 36 35 35 34 33
37 37 37 37 38 38 38 38 38 38 38 38 38 38 39 40 40 41 41 40 40 40 40 40 39 39 39 38 37 38 38 38 38 37 37 36 36 36 35 35 34 33 33
Wind_Direction
257 259 261 263 262 262 263 265 267 266 267 268 269 269 267 267 268 268 268 269 271 272 272 273 274 276 277 278 279 280 281 282 283 284 286 287 288 289 290 290 290 291 291
257 258 261 261 261 263 263 265 266 267 268 268 269 268 266 265 266 267 268 269 270 271 272 273 274 276 277 278 279 279 280 281 282 283 284 286 287 288 289 290 290 290 290
257 257 258 259 260 262 263 264 265 266 267 269 268 268 266 266 266 267 268 269 269 270 272 273 274 276 277 279 279 279 280 282 282 283 284 285 287 288 289 289 290 290 291
257 258 257 257 259 262 263 265 265 266 267 269 268 267 266 265 267 267 267 269 270 270 271 272 274 275 277 279 279 280 281 281 282 282 283 285 286 288 288 288 290 292 292
256 258 257 257 258 261 263 265 266 266 267 267 266 266 267 267 267 267 267 269 269 270 271 271 272 274 276 278 279 280 281 281 282 282 283 285 286 287 287 289 290 291 292
256 257 258 257 258 260 262 264 265 265 266 266 265 266 267 267 267 266 267 269 268 269 270 271 273 274 276 278 279 280 281 281 281 282 283 285 286 286 287 289 290 291 291
255 256 257 258 259 260 262 264 265 265 265 264 264 266 266 266 265 265 267 268 268 268 269 270 272 274 276 278 279 280 280 281 282 282 283 284 285 286 287 288 289 290 290
256 255 256 259 259 260 262 264 265 265 265 264 265 265 265 265 264 265 267 267 268 269 270 271 272 274 276 278 279 279 280 280 281 282 283 283 285 285 286 288 288 289 289
255 255 257 259 261 262 263 265 266 266 266 265 265 266 266 265 264 265 266 267 268 270 271 272 273 274 276 278 278 279 279 279 280 282 283 284 286 286 287 288 288 289 289
256 256 257 260 262 262 263 265 265 265 265 265 265 266 266 266 265 265 266 268 269 270 272 272 273 275 277 278 278 277 278 279 280 281 282 283 285 286 286 287 288 288 289
256 257 258 260 261 261 262 263 263 264 265 265 266 267 266 266 267 268 268 268 269 271 272 272 274 275 276 278 279 277 277 278 279 280 281 283 284 284 285 285 287 288 289
256 257 259 260 260 259 261 261 262 263 265 266 266 267 267 267 268 269 269 269 270 270 272 273 274 275 276 278 278 278 278 277 277 279 280 282 283 283 285 286 288 289 289
256 257 259 260 258 258 259 260 261 262 264 265 266 267 269 269 269 269 270 270 270 272 272 274 274 275 277 277 278 279 278 277 277 278 280 281 283 284 285 286 287 289 290
257 258 259 260 258 257 258 259 260 263 264 265 266 268 268 269 269 269 270 271 271 272 274 274 274 276 278 278 279 280 279 279 279 280 281 282 283 284 285 285 286 288 289
259 258 259 260 259 258 259 260 262 263 264 266 267 268 269 269 269 269 270 271 273 274 275 275 275 277 278 278 280 280 280 280 280 281 282 283 284 285 286 286 287 288 289
259 258 258 258 258 258 260 261 262 263 265 266 267 268 269 270 270 269 270 272 274 274 276 276 277 278 279 279 279 280 280 281 282 283 284 284 286 286 287 288 288 289 289
259 257 257 258 259 259 260 261 261 262 264 265 267 268 269 271 271 270 270 272 274 275 276 276 276 277 279 279 279 279 280 281 282 284 284 285 285 286 288 288 289 289 289
257 258 259 258 258 259 260 260 260 262 264 265 267 269 270 270 271 271 271 273 275 275 275 275 276 277 278 279 279 280 280 281 283 284 285 286 286 287 288 289 289 290 290
255 257 259 260 259 259 259 259 261 262 264 266 268 269 269 270 271 272 272 274 275 275 275 275 275 276 277 278 279 280 280 281 283 284 285 286 286 287 287 289 289 289 290
255 256 258 259 259 259 259 260 262 263 265 267 268 269 270 271 272 273 273 273 273 274 274 275 275 275 276 278 279 279 280 281 284 285 286 286 286 287 288 288 289 289 289
254 256 257 258 259 260 260 261 263 264 266 266 268 270 271 272 273 273 272 272 272 272 273 274 274 275 277 278 279 280 280 282 284 285 287 286 287 288 287 288 289 289 289
255 256 257 258 260 261 262 263 262 264 266 267 269 270 270 272 272 273 272 272 272 272 272 272 273 275 277 278 279 279 280 282 283 284 286 286 288 288 287 288 289 289 289
256 255 256 257 259 262 263 264 264 264 265 267 269 270 271 273 273 272 272 272 271 271 271 272 273 275 276 277 278 279 280 282 284 285 286 287 288 289 289 290 289 289 288
254 255 257 257 259 261 263 264 264 264 267 268 269 270 271 272 273 272 270 271 271 272 272 272 274 275 275 275 278 279 279 280 283 285 286 288 288 289 289 290 290 290 289
254 256 257 258 260 261 262 263 265 265 268 269 270 271 271 272 272 272 271 271 270 270 270 273 275 274 274 275 277 278 279 279 282 284 286 288 288 288 288 290 291 291 291
256 256 257 258 259 260 261 263 265 266 267 269 270 272 272 271 271 271 270 271 270 270 270 272 273 273 275 276 278 278 279 280 282 283 285 286 287 287 287 288 290 290 291
Height
5796 5797 5798 5799 5800 5801 5801 5802 5802 5803 5803 5804 5804 5804 5805 5805 5806 5806 5806 5806 5807 5807 5807 5807 5808 5808 5808 5807 5807 5807 5806 5806 5805 5804 5803 5802 5801 5800 5798 5797 5795 5794 5792
5789 5790 5791 5792 5793 5794 5795 5795 5796 5796 5797 5797 5798 5798 5799 5799 5799 5800 5800 5801 5801 5801 5801 5801 5802 5802 5802 5802 5801 5801 5800 5799 5799 5798 5797 5796 5795 5793 5792 5790 5789 5787 5786
5781 5783 5784 5785 5786 5787 5788 5789 5789 5790 5790 5791 5791 5791 5792 5792 5793 5794 5794 5795 5795 5795 5795 5795 5795 5795 5795 5795 5795 5795 5794 5793 5792 5791 5790 5789 5788 5786 5785 5784 5782 5780 5779
5773 5774 5776 5778 5779 5780 5781 5782 5782 5783 5783 5784 5784 5785 5785 5786 5786 5787 5787 5788 5788 5789 5789 5789 5789 5789 5789 5789 5788 5788 5787 5786 5785 5784 5783 5782 5781 5779 5778 5776 5775 5773 5771
5764 5766 5768 5770 5771 5772 5773 5774 5775 5776 5776 5776 5777 5778 5778 5779 5779 5780 5780 5781 5781 5782 5782 5782 5783 5782 5782 5782 5781 5781 5780 5779 5779 5777 5776 5775 5774 5772 5771 5769 5767 5765 5763
5756 5758 5760 5761 5763 5764 5765 5766 5767 5768 5768 5769 5769 5770 5771 5771 5772 5772 5773 5774 5774 5774 5775 5775 5775 5775 5775 5774 5774 5773 5773 5772 5771 5770 5769 5767 5766 5764 5763 5761 5759 5757 5754
5747 5749 5751 5753 5755 5756 5757 5758 5759 5760 5761 5761 5762 5762 5763 5763 5764 5765 5765 5766 5766 5767 5767 5768 5768 5768 5768 5767 5767 5766 5765 5764 5763 5762 5761 5760 5758 5756 5755 5752 5750 5748 5745
5738 5740 5742 5744 5746 5748 5749 5750 5751 5752 5752 5753 5753 5754 5755 5757 5757 5758 5758 5758 5759 5759 5759 5760 5760 5760 5760 5760 5759 5758 5757 5756 5755 5754 5752 5751 5750 5748 5746 5744 5741 5739 5736
5729 5731 5733 5735 5737 5739 5740 5741 5742 5743 5744 5745 5745 5746 5747 5748 5749 5750 5750 5750 5751 5751 5751 5752 5751 5751 5751 5751 5750 5749 5748 5746 5746 5745 5743 5742 5740 5739 5737 5734 5732 5730 5727
5720 5722 5724 5726 5728 5730 5731 5732 5733 5734 5735 5736 5737 5737 5738 5739 5740 5741 5742 5742 5742 5743 5743 5743 5743 5743 5742 5742 5741 5740 5739 5737 5737 5735 5734 5732 5730 5729 5727 5724 5722 5719 5717
5711 5713 5715 5717 5718 5720 5722 5723 5724 5725 5726 5727 5728 5729 5729 5730 5731 5732 5733 5734 5734 5734 5734 5734 5733 5733 5732 5732 5731 5730 5729 5728 5727 5725 5724 5722 5720 5718 5716 5714 5711 5709 5706
5702 5704 5706 5707 5709 5711 5712 5714 5715 5716 5717 5718 5719 5720 5720 5721 5722 5723 5723 5724 5725 5725 5724 5724 5723 5723 5722 5721 5720 5719 5718 5717 5716 5714 5713 5711 5709 5707 5705 5703 5700 5698 5695
5692 5694 5696 5697 5699 5701 5703 5704 5706 5707 5708 5709 5710 5711 5711 5712 5712 5713 5713 5714 5714 5715 5714 5714 5713 5712 5711 5710 5709 5708 5707 5705 5704 5703 5702 5700 5698 5696 5694 5691 5689 5686 5684
5682 5684 5686 5688 5690 5692 5693 5695 5696 5698 5699 5700 5701 5701 5702 5702 5702 5702 5703 5703 5703 5704 5703 5703 5702 5700 5699 5698 5697 5696 5695 5694 5693 5691 5690 5688 5686 5684 5682 5680 5677 5675 5672
5672 5674 5676 5678 5680 5682 5684 5685 5687 5688 5689 5690 5691 5692 5692 5692 5692 5692 5692 5692 5692 5692 5693 5692 5690 5689 5687 5686 5685 5684 5683 5682 5680 5679 5678 5676 5674 5672 5669 5667 5665 5663 5661
5662 5664 5666 5668 5670 5672 5674 5676 5677 5678 5680 5680 5681 5682 5682 5682 5682 5682 5682 5682 5681 5681 5680 5680 5678 5677 5676 5674 5673 5672 5671 5670 5669 5668 5666 5664 5662 5660 5658 5655 5653 5651 5649
5651 5653 5656 5657 5659 5662 5663 5665 5667 5668 5669 5670 5671 5671 5672 5672 5672 5672 5672 5671 5670 5669 5669 5668 5667 5666 5664 5663 5662 5661 5660 5659 5658 5657 5655 5653 5651 5649 5647 5645 5642 5640 5638
5641 5643 5645 5647 5649 5651 5653 5655 5657 5658 5659 5660 5660 5661 5661 5661 5661 5661 5661 5661 5660 5658 5657 5657 5656 5655 5654 5652 5651 5650 5649 5648 5647 5646 5644 5642 5641 5638 5636 5634 5632 5629 5627
5630 5633 5635 5637 5639 5641 5643 5645 5646 5648 5649 5650 5650 5651 5651 5650 5651 5651 5650 5650 5649 5647 5646 5646 5646 5645 5644 5643 5641 5640 5639 5638 5637 5636 5634 5632 5630 5628 5626 5623 5621 5619 5617
5620 5622 5624 5626 5628 5630 5632 5634 5636 5637 5638 5639 5639 5640 5640 5640 5640 5640 5639 5638 5638 5637 5636 5636 5635 5635 5634 5633 5632 5631 5630 5629 5627 5626 5624 5622 5620 5618 5616 5613 5611 5609 5607
5610 5612 5614 5616 5618 5620 5622 5624 5625 5627 5627 5628 5629 5629 5629 5629 5628 5628 5628 5627 5627 5626 5626 5625 5625 5625 5624 5623 5622 5621 5620 5619 5618 5616 5614 5612 5610 5608 5605 5603 5601 5599 5596
5600 5602 5604 5606 5608 5609 5611 5613 5614 5616 5617 5617 5618 5618 5618 5618 5618 5617 5617 5616 5616 5616 5616 5615 5615 5615 5614 5613 5612 5611 5610 5610 5609 5607 5604 5602 5600 5597 5595 5593 5591 5588 5586
5590 5592 5594 5596 5598 5599 5601 5602 5603 5604 5605 5606 5606 5607 5607 5606 5606 5606 5606 5605 5605 5605 5605 5605 5605 5604 5604 5603 5602 5601 5600 5599 5598 5596 5594 5593 5590 5587 5585 5583 5580 5578 5576
5580 5582 5584 5586 5588 5589 5591 5592 5592 5593 5594 5594 5595 5595 5595 5595 5595 5595 5595 5594 5594 5594 5595 5595 5595 5594 5593 5592 5592 5591 5590 5589 5588 5586 5584 5583 5580 5578 5575 5573 5570 5568 5566
5570 5572 5574 5576 5578 5579 5581 5581 5582 5582 5583 5583 5584 5584 5584 5584 5584 5583 5583 5584 5584 5584 5583 5583 5584 5583 5582 5582 5581 5580 5579 5578 5578 5576 5574 5572 5570 5568 5566 5564 5561 5559 5556
5560 5562 5564 5566 5567 5569 5570 5571 5571 5572 5572 5573 5573 5573 5572 5572 5571 5571 5571 5572 5572 5573 5572 5573 5573 5573 5572 5571 5570 5570 5569 5568 5567 5566 5564 5562 5560 5558 5557 5555 5553 5550 5548